Flag for Canada Weather past 2 weeks in Chilliwack, British Columbia, Canada

Now
77 °F

Warm.


Feels Like: 78 °F
Forecast: 59 / 74 °F
Wind: 6 mph from Southwest

Location: Agassiz

Current Time: Sep 16, 2014 at 5:19:08 PM

Latest Report: Sep 16, 2014 at 5:00 PM


Visibility: N/A

Pressure: 29.81 "Hg

Humidity: 43%

Dew point: 53 °F

Location of ChilliwackLocation

Historic Weather in Chilliwack — Graph

°F

Chilliwack temperature yesterday

Maximum temperature yesterday: 86 °F (at 5:00 PM)
Minimum temperature yesterday: 57 °F (at 11:00 PM)
Average temperature yesterday: 70 °F

Past Weeks' High & Low Weather Summary

 TemperatureHumidityPressure
High87 °F (Sep 6, 5:00 PM)100% (Sep 2, 2:00 AM)30.37 "Hg (Sep 2, 2:00 AM)
Low51 °F (Sep 3, 5:00 AM)19% (Sep 12, 3:00 PM)29.77 "Hg (Sep 7, 8:00 PM)
Average65 °F59%30.00 "Hg
* Reported Sep 1 4:00 PM — Sep 16 4:00 PM, Chilliwack, Weather by CustomWeather, © 2014

Note: Actual official high and low records may vary slightly from our data, if they occured in-between our weather recording intervals... More about our weather records

Advertising

Chilliwack weather history for previous 24 hours

 ConditionsComfort  
Time TempWeatherWind HumidityBarometerVisibility
4:00 PM
Sep 16
76 °FMild.6 mph43%29.81 "HgN/A
2:00 PM79 °FWarm.6 mph41%29.83 "HgN/A
12:00 PM76 °FMild.3 mph36%29.84 "HgN/A
11:00 AM73 °FMild.2 mph38%29.85 "HgN/A
10:00 AM70 °FMild.1 mph42%29.87 "HgN/A
9:00 AM64 °FMild.1 mph61%29.87 "HgN/A
8:00 AM58 °FCool.1 mph72%29.88 "HgN/A
7:00 AM59 °FCool.1 mph64%29.86 "HgN/A
6:00 AM62 °FRefreshingly cool.3 mph55%29.85 "HgN/A
5:00 AM64 °FMild.5 mph54%29.84 "HgN/A
4:00 AM60 °FCool.1 mph61%29.84 "HgN/A
3:00 AM64 °FMild.3 mph52%29.83 "HgN/A
2:00 AM63 °FMild.2 mph55%29.84 "HgN/A
1:00 AM59 °FCool.3 mph77%29.84 "HgN/A
12:00 AM59 °FCool.1 mph77%29.83 "HgN/A
11:00 PM
Sep 15
57 °FCool.2 mph86%29.82 "HgN/A
10:00 PM58 °FCool.No wind89%29.81 "HgN/A
9:00 PM58 °FCool.No wind87%29.80 "HgN/A
8:00 PM63 °FMild.No wind79%29.79 "HgN/A
7:00 PM73 °FMild.1 mph62%29.78 "HgN/A
6:00 PM84 °FPleasantly warm.1 mph29%29.79 "HgN/A
5:00 PM86 °FPleasantly warm.2 mph27%29.80 "HgN/A
Weather by CustomWeather, © 2014

See weather overviewHow to use our weather pages